Location: Vlissingen
(51.4500°N, 3.5830°E)
Time: 14:26:39
(UTC+01:00)

X-37B - Visible Passes

Search period start: 01 December 2021 00:00
Search period end: 11 December 2021 00:00
Orbit: 330 x 341 km, 45.0° (Epoch: 20 November)

Date Brightness Start Highest point End Pass type
(mag) Time Alt. Az. Time Alt. Az. Time Alt. Az.
08 Dec 3.0 18:36:53 10° S 18:37:44 11° SSE 18:37:44 11° SSE visible
09 Dec 2.8 18:56:02 10° SSW 18:57:18 16° S 18:57:18 16° S visible
10 Dec 3.0 17:42:20 10° S 17:43:21 11° SSE 17:44:23 10° SE visible
10 Dec 3.1 19:15:54 10° SW 19:16:51 16° SSW 19:16:51 16° SSW visible
